SL-12 R/B(AUX MOTOR), 15338

Orbit data source: Space-Track

SL-12 R/B(AUX MOTOR), 15338 is space debris in LEO originally from a launch on Fri, 28 Sep 1984 UTC launched from the Tyuratam Missile And Space Complex (TTMTR). Debris objects in space refer to the collection of defunct objects orbiting the Earth. Examples of debris include non-operational satellites, rocket bodies, and fragments generated from explosions, collisions, or faulty payload assembly.

Loading next visibility...
Identifier
15338, 1984-106F
Orbit
LEO
Country
Flag of CISCIS
Related business
Manufacturer
NPO Energiya
Mission
Spacecraft
Bus & Motor
SOZ, Unknown motor
Mass
110 kg wet, 56 kg dry
Launch date (UTC)
1984-09-28 (41 years ago)
Launch vehicle
Unknown
Launch site
Tyuratam Missile And Space Complex (TTMTR)
Object type
Payload
Rocket body
Debris
Shape & HBR
Cyl, 0.6 m
Radar Cross Section
0.660 m², Medium (>0.1 m² and < 1m²)

Expand to show TLE details & history
Last TLE update: 23 hours ago

TLE from 23 hours ago
0 SL-12 R/B(AUX MOTOR)
1 15338U 84106F   25261.35867167  .00000304  00000-0  18527-3 0  9991
2 15338  66.5690 249.5271 0010598 182.3761 177.7282 14.19169637119658
Epoch: 2025-09-18T08:36Z
TLE epoch observation values (Epoch: 2025-09-18T08:36:29.232Z)
Latitude
-0.00001°
Longitude
122.88389°
Altitude
837.881 km
Speed
7.43 km/s
True Right ascension
16h 38m 06s
True Declination
0° 00' 00"
Sunlit
Object was in daylight at epoch
Visualization orbit readout
Latitude
Unknown
Longitude
Unknown
Altitude
Unknown
Speed
Unknown
Apparent Right ascension
Unknown
Apparent Declination
Unknown
Sunlit
N/A
Visualization observer readout
Local Sidereal Time
00:30:25
Azimuth
Unknown
Elevation
Unknown
Doppler factor
Unknown
Orbital elements
Apogee altitude
834.196 km
Perigee altitude
818.925 km
Semi-major axis
7,204.698 km
Eccentricity
0.00106
Inclination
66.569°
RAAN
249.5271°
Arg. of periapsis
182.3761°
True anomaly
177.73301°
Mean anomaly
177.7282°
Eccentric anomaly
177.7306°
Mean motion
3.54911 °/min
Orbital period
101.43 mins
BSTAR
0.00018527
Loading maneuver chart data...
Computing Atmospheric mass density...
Loading historical data...
Loading historical data...
Loading historical data...
Loading historical data...
Loading historical data...
Loading historical data...
Loading historical data...

Documentation

Showing up to 5 results
|